Location: Bakov nad Jizerou
(50.4784°N, 14.9394°E)
Time: 23:31:42
(UTC+00:00)

Cosmos 389 Rocket - Pass Details

Date: 16 June 2021
Orbit: 440 x 471 km, 81.1° (Epoch: 23 July)

Event Time Altitude Azimuth Distance (km) Brightness Sun altitude
Rises 21:56:01 0° 345° (NNW) 2,446 8.1 -14.8°
Reaches altitude 10° 21:58:06 10° 342° (NNW) 1,571 6.6 -14.8°
Maximum altitude 22:01:29 64° 261° (W) 496 2.5 -15.0°
Enters shadow 22:02:58 30° 188° (S) 818 3.2 -15.0°
